Location: Basin
(44.3800°N, 108.0380°W)
Time: 18:52:25
(UTC-06:00)

ISS - Visible Passes

Search period start: 30 September 2020 00:00
Search period end: 10 October 2020 00:00
Orbit: 419 x 421 km, 51.6° (Epoch: 01 October)

Date Brightness Start Highest point End Pass type
(mag) Time Alt. Az. Time Alt. Az. Time Alt. Az.
30 Sep -2.5 20:01:25 10° NW 20:04:27 30° NNE 20:06:00 21° ENE visible
30 Sep -0.7 21:38:08 10° WNW 21:38:58 16° WNW 21:38:58 16° WNW visible
01 Oct -3.1 20:50:50 10° WNW 20:53:32 53° NW 20:53:32 53° NW visible
02 Oct -3.4 20:03:33 10° NW 20:06:53 52° NNE 20:08:08 31° E visible
02 Oct -0.4 21:40:41 10° W 21:41:07 12° W 21:41:07 12° W visible
03 Oct -2.9 19:16:17 10° NW 19:19:29 38° NNE 19:22:40 10° E visible
03 Oct -2.4 20:53:08 10° WNW 20:55:47 37° WSW 20:55:47 37° WSW visible
04 Oct -3.5 20:05:43 10° WNW 20:09:04 66° SW 20:10:32 30° SE visible
05 Oct -3.8 19:18:21 10° WNW 19:21:44 79° NNE 19:25:06 10° ESE visible
05 Oct -1.2 20:56:05 10° W 20:58:10 16° SW 20:58:22 15° SW visible
06 Oct -1.7 20:08:11 10° W 20:11:00 25° SW 20:13:21 13° S visible
07 Oct -2.5 19:20:34 10° WNW 19:23:46 40° SW 19:26:56 10° SSE visible
09 Oct -0.8 19:23:28 10° W 19:25:31 15° SW 19:27:34 10° S visible
